sat.trackr.live / text

‹ back to catalog

HULIANWANG DIGUI-19

NORAD 62979 · 2025-030J

PAYLOAD ACTIVE UNKNOWN

§ Identity

Operator
Country
PRC
Launch date
2025-02-11
Launch site
WSC
Launch vehicle
Mass (kg)
RCS (m²)

External: N2YO · Heavens-Above · Gunter

§ Orbital elements

Epoch: 2026-05-25T01:18:59.364000Z

Period
108.33 min
Inclination
50.0061°
Eccentricity
0.0001185
Mean motion
13.29318841 rev/d
Perigee alt
1,148.4 km
Apogee alt
1,150.2 km
Semi-major
7,527.5 km
B*
6.2355e-5
RAAN
318.7314°
Arg perigee
88.1246°
Mean anomaly
271.9762°
Rev number
6,278

§ Raw data

HULIANWANG DIGUI-191 62979U 25030J   26145.05485375 -.00000095  00000+0  62355-4 0  99972 62979  50.0061 318.7314 0001185  88.1246 271.9762 13.29318841 62785

JSON: /api/v1/satellites/62979 · /tle

For live sub-satellite position, see the globe view (requires WebGL).

§ Visibility from observer

Set your observer location to see the next 7 days of passes ≥ 10°. The values pass through the URL so the page stays shareable.

No JS? Fill the form by hand. The geolocation button needs JavaScript.